Location: Hains Lake
(37.8540°N, 99.8578°W)
Time: 04:12:53
(UTC+00:00)

Vanguard 2 Rocket - Pass Details

Date: 27 April 2021
Orbit: 553 x 3326 km, 32.9° (Epoch: 07 May)

Event Time Altitude Azimuth Distance (km) Brightness Sun altitude
Rises 02:04:42 0° 281° (W) 7,307 13.4 -8.0°
Reaches altitude 10° 02:12:06 10° 266° (W) 6,124 12.2 -9.3°
Maximum altitude 02:22:51 18° 231° (SW) 4,880 10.9 -11.2°
Drops below altitude 10° 02:31:41 10° 193° (SSW) 4,864 10.4 -12.7°
Sets 02:36:36 0° 176° (S) 5,372 10.5 -13.6°
